| time (UTC) | temp C | wind direction | speed KPH | gust KPH | rain 1hr cm | rain 24hr cm | rain mn cm | humidity % | barometer mb |
| 20260503223058 | 20 | 136 | 3.2 | 12.9 | 0.00 | 0.00 | 0.00 | 60 | 1016.4 |
| 20260503221604 | 20 | 215 | 1.6 | 12.9 | 0.00 | 0.00 | 0.00 | 59 | 1016.4 |
| 20260503220057 | 20 | 136 | 3.2 | 9.7 | 0.00 | 0.00 | 0.00 | 57 | 1016.3 |
| 20260503214558 | 21 | 111 | 3.2 | 11.3 | 0.00 | 0.00 | 0.00 | 54 | 1016.4 |
| 20260503213103 | 22 | 172 | 1.6 | 8.0 | 0.00 | 0.00 | 0.00 | 46 | 1016.5 |
| 20260503211556 | 22 | 0 | 0.0 | 8.0 | 0.00 | 0.00 | 0.00 | 47 | 1016.5 |
| 20260503210054 | 22 | 240 | 1.6 | 6.4 | 0.00 | 0.00 | 0.00 | 48 | 1016.7 |
| 20260503204620 | 22 | 271 | 1.6 | 14.5 | 0.00 | 0.00 | 0.00 | 47 | 1016.8 |
| 20260503203102 | 22 | 153 | 1.6 | 9.7 | 0.00 | 0.00 | 0.00 | 46 | 1016.7 |
| 20260503201558 | 22 | 254 | 4.8 | 14.5 | 0.00 | 0.00 | 0.00 | 47 | 1017.1 |
| 20260503200057 | 22 | 0 | 3.2 | 12.9 | 0.00 | 0.00 | 0.00 | 47 | 1017.1 |
| 20260503194600 | 22 | 276 | 1.6 | 12.9 | 0.00 | 0.08 | 0.00 | 46 | 1017.4 |
| 20260503193118 | 22 | 289 | 1.6 | 9.7 | 0.00 | 0.08 | 0.00 | 46 | 1017.5 |
| 20260503191611 | 21 | 286 | 0.0 | 6.4 | 0.00 | 0.08 | 0.00 | 49 | 1017.9 |
| 20260503190054 | 21 | 0 | 0.0 | 8.0 | 0.00 | 0.08 | 0.00 | 52 | 1018.3 |
| 20260503184556 | 21 | 291 | 1.6 | 6.4 | 0.00 | 0.25 | 0.00 | 52 | 1018.4 |
| 20260503183101 | 20 | 0 | 0.0 | 8.0 | 0.00 | 0.25 | 0.00 | 50 | 1018.6 |
| 20260503181559 | 21 | 314 | 1.6 | 12.9 | 0.00 | 0.25 | 0.00 | 54 | 1018.7 |
| 20260503174556 | 21 | 290 | 1.6 | 9.7 | 0.00 | 0.41 | 0.00 | 52 | 1018.7 |
| 20260503173109 | 21 | 325 | 1.6 | 12.9 | 0.00 | 0.41 | 0.00 | 50 | 1018.9 |
| 20260503170118 | 20 | 126 | 1.6 | 12.9 | 0.00 | 0.41 | 0.00 | 52 | 1019.1 |
| 20260503160109 | 18 | 182 | 1.6 | 8.0 | 0.00 | 0.51 | 0.00 | 53 | 1019.6 |
| 20260503100104 | 7 | 0 | 0.0 | 0.0 | 0.00 | 2.11 | 0.00 | 97 | 1017.1 |
| 20260503081608 | 8 | 0 | 0.0 | 0.0 | 0.00 | 2.46 | 0.00 | 97 | 1016.5 |
| 20260503071611 | 8 | 0 | 0.0 | 0.0 | 0.00 | 2.64 | 0.00 | 97 | 1015.9 |
| 20260503054608 | 9 | 0 | 0.0 | 0.0 | 0.00 | 2.79 | 0.00 | 96 | 1015.9 |
| 20260503053053 | 9 | 0 | 0.0 | 0.0 | 0.00 | 2.79 | 0.00 | 96 | 1015.8 |
| 20260503051553 | 10 | 0 | 0.0 | 0.0 | 0.00 | 2.79 | 0.00 | 96 | 1015.8 |
| 20260503050055 | 10 | 0 | 0.0 | 0.0 | 0.00 | 2.79 | 0.00 | 96 | 1015.7 |
| 20260503044558 | 10 | 0 | 0.0 | 0.0 | 0.00 | 2.79 | 0.00 | 96 | 1015.5 |
| 20260503043058 | 10 | 0 | 0.0 | 0.0 | 0.00 | 2.79 | 0.00 | 96 | 1015.4 |
| 20260503041555 | 10 | 0 | 0.0 | 0.0 | 0.00 | 2.79 | 0.00 | 96 | 1015.1 |
| 20260503040058 | 10 | 0 | 0.0 | 0.0 | 0.00 | 2.79 | 0.00 | 96 | 1015.0 |
| 20260503034555 | 10 | 0 | 0.0 | 0.0 | 0.00 | 2.82 | 2.79 | 96 | 1015.1 |
| 20260503033054 | 10 | 0 | 0.0 | 0.0 | 0.00 | 2.82 | 2.79 | 96 | 1014.9 |
| 20260503031553 | 11 | 0 | 0.0 | 0.0 | 0.00 | 2.82 | 2.79 | 96 | 1014.6 |
| 20260503024557 | 11 | 0 | 0.0 | 0.0 | 0.00 | 2.82 | 2.79 | 96 | 1014.1 |
| 20260503023056 | 11 | 0 | 0.0 | 1.6 | 0.00 | 2.82 | 2.79 | 95 | 1013.7 |
| 20260503021553 | 11 | 0 | 0.0 | 3.2 | 0.00 | 2.82 | 2.79 | 95 | 1013.7 |
| 20260503020056 | 12 | 287 | 0.0 | 1.6 | 0.00 | 2.82 | 2.79 | 95 | 1013.6 |
| 20260503014622 | 12 | 0 | 0.0 | 3.2 | 0.00 | 2.82 | 2.79 | 95 | 1013.3 |
| 20260503013053 | 12 | 301 | 0.0 | 4.8 | 0.00 | 2.82 | 2.79 | 95 | 1013.2 |
| 20260503011554 | 12 | 0 | 0.0 | 4.8 | 0.00 | 2.82 | 2.79 | 96 | 1012.8 |
| 20260503010056 | 12 | 0 | 0.0 | 4.8 | 0.00 | 2.82 | 2.79 | 95 | 1012.6 |
| 20260503004553 | 12 | 0 | 0.0 | 6.4 | 0.00 | 2.82 | 2.79 | 96 | 1012.4 |
| 20260503003057 | 12 | 317 | 0.0 | 4.8 | 0.00 | 2.82 | 2.79 | 96 | 1012.4 |
| 20260503001555 | 12 | 0 | 1.6 | 6.4 | 0.00 | 2.82 | 2.79 | 96 | 1012.1 |
| 20260503000052 | 12 | 0 | 0.0 | 8.0 | 0.00 | 2.82 | 2.79 | 96 | 1012.0 |
| 20260502234559 | 12 | 327 | 1.6 | 6.4 | 0.00 | 2.82 | 2.79 | 96 | 1011.9 |
| 20260502233058 | 12 | 280 | 1.6 | 6.4 | 0.00 | 2.82 | 2.79 | 95 | 1011.7 |
| 20260502231607 | 13 | 306 | 0.0 | 3.2 | 0.00 | 2.82 | 2.79 | 96 | 1011.6 |
| 20260502230055 | 13 | 330 | 0.0 | 6.4 | 0.00 | 2.82 | 2.79 | 96 | 1011.2 |
| 20260502224556 | 13 | 257 | 0.0 | 6.4 | 0.00 | 2.82 | 2.79 | 96 | 1011.6 |